Weather History for Bellingham, WA

Change the Weather History Date:

Monday, October 29, 2012

  Actual Average Record
Temperature  
Mean Temperature 54 °F 47 °F  
Max Temperature 59 °F 54 °F 70 °F (1968)
Min Temperature 48 °F 40 °F 25 °F (1971)
Degree Days  
Heating Degree Days 12 18  
Month to date heating degree days 435  
Cooling Degree Days 0 0  
Month to date cooling degree days 0  
Year to date cooling degree days 42  
Growing Degree Days 4 (Base 50)    
Moisture  
Dew Point 50 °F    
Average Humidity 90    
Maximum Humidity 96    
Minimum Humidity 81    
Precipitation  
Precipitation 0.47 in 0.17 in 0.77 in (1977)
Month to date precipitation 3.36  
Year to date precipitation 25.49  
Sea Level Pressure  
Sea Level Pressure 29.82 in    
Wind  
Wind Speed 7 mph (ESE)    
Max Wind Speed 14 mph    
Max Gust Speed 21 mph    
Visibility 7 miles    
Events Rain    
T = Trace of Precipitation, MM = Missing Value Source: NWS Daily Summary

Daily Weather History Graph

Daily Weather History Graph

Search for Another Location

Airport:

Trip Planner

Search our weather history database for the weather conditions in past years. The results will help you decide how hot, cold, wet, or windy it might be!

Date:

Astronomy

Oct. 29, 2012 Rise Set
Actual Time 7:53 AM PDT 5:53 PM PDT
Civil Twilight 7:20 AM PDT 6:26 PM PDT
Nautical Twilight 6:43 AM PDT 7:03 PM PDT
Astronomical Twilight 6:06 AM PDT 7:40 PM PDT
Moon 5:44 PM PDT (10/29) 7:51 AM PDT (10/29)
Length of Visible Light 11h 06m
Length of Day
10h 00m
Full, 100% of the Moon is Illuminated
Oct 29
Full
Oct 29
Full
Nov 6
Last Quarter
Nov 13
New
Nov 20
First Quarter

Hourly Weather History & Observations

Time (PDT) Temp. Dew Point Humidity Pressure Visibility Wind Dir Wind Speed Gust Speed Precip Events Conditions
12:18 AM 51.8 °F 48.2 °F 88% 29.75 in 4.0 mi NNE 5.8 mph - 0.03 in Rain Light Rain
12:25 AM 51.8 °F 48.2 °F 88% 29.75 in 5.0 mi NNE 5.8 mph - 0.03 in Rain Light Rain
12:32 AM 51.8 °F 48.2 °F 88% 29.75 in 6.0 mi NNE 4.6 mph - 0.03 in Rain Light Rain
12:43 AM 51.8 °F 48.2 °F 88% 29.75 in 7.0 mi NNE 5.8 mph - 0.03 in Rain Light Rain
12:53 AM 51.1 °F 48.9 °F 92% 29.78 in 5.0 mi NNE 4.6 mph - 0.04 in Rain Light Rain
1:53 AM 50.0 °F 48.9 °F 96% 29.75 in 4.0 mi NNE 6.9 mph - 0.01 in Rain Light Rain
2:26 AM 50.0 °F 48.2 °F 94% 29.72 in 3.0 mi NNE 8.1 mph - 0.02 in Rain Light Rain
2:49 AM 50.0 °F 48.2 °F 94% 29.73 in 2.5 mi North 9.2 mph - 0.04 in Rain Light Rain
2:53 AM 50.0 °F 48.0 °F 93% 29.75 in 3.0 mi North 8.1 mph - 0.05 in Rain Light Rain
3:53 AM 48.9 °F 46.9 °F 93% 29.74 in 6.0 mi NNE 6.9 mph - 0.05 in Rain Light Rain
4:44 AM 48.2 °F 46.4 °F 93% 29.69 in 8.0 mi NNE 6.9 mph - 0.01 in Rain Light Rain
4:53 AM 48.9 °F 46.9 °F 93% 29.71 in 5.0 mi NNE 8.1 mph - 0.02 in Rain Light Rain
5:53 AM 48.9 °F 46.9 °F 93% 29.70 in 5.0 mi North 5.8 mph - 0.04 in Rain Light Rain
6:01 AM 48.2 °F 46.4 °F 93% 29.68 in 4.0 mi North 6.9 mph - 0.01 in Rain Light Rain
6:51 AM 48.2 °F 46.4 °F 93% 29.68 in 2.0 mi ENE 12.7 mph 17.3 mph 0.12 in Rain Heavy Rain
6:53 AM 48.0 °F 46.0 °F 93% 29.71 in 2.0 mi ENE 9.2 mph 17.3 mph 0.12 in Rain Rain
6:57 AM 48.2 °F 46.4 °F 93% 29.69 in 3.0 mi NE 6.9 mph 17.3 mph 0.00 in Rain Light Rain
7:07 AM 48.2 °F 46.4 °F 93% 29.70 in 3.0 mi Calm Calm - 0.03 in Rain Rain
7:15 AM 48.2 °F 46.4 °F 93% 29.70 in 3.0 mi Calm Calm - 0.06 in Rain Rain
7:53 AM 48.9 °F 46.9 °F 93% 29.73 in 5.0 mi Calm Calm - 0.09 in Rain Light Rain
8:53 AM 48.9 °F 46.9 °F 93% 29.78 in 6.0 mi Calm Calm - 0.00 in   Overcast
9:50 AM 51.8 °F 50.0 °F 94% 29.79 in 6.0 mi Calm Calm - N/A   Overcast
9:53 AM 52.0 °F 50.0 °F 93% 29.81 in 6.0 mi Calm Calm - N/A   Overcast
10:53 AM 55.0 °F 53.1 °F 93% 29.84 in 6.0 mi South 6.9 mph - N/A   Overcast
11:03 AM 55.4 °F 53.6 °F 94% 29.83 in 7.0 mi SSE 6.9 mph - N/A   Overcast
11:13 AM 55.4 °F 53.6 °F 94% 29.83 in 7.0 mi South 6.9 mph - N/A   Overcast
11:20 AM 55.4 °F 53.6 °F 94% 29.84 in 7.0 mi South 6.9 mph - N/A   Overcast
11:53 AM 57.0 °F 54.0 °F 89% 29.86 in 7.0 mi South 11.5 mph - N/A   Overcast
12:53 PM 59.0 °F 54.0 °F 83% 29.88 in 10.0 mi South 11.5 mph 20.7 mph N/A   Overcast
1:50 PM 57.2 °F 53.6 °F 88% 29.89 in 10.0 mi South 11.5 mph - N/A   Overcast
1:53 PM 57.9 °F 53.1 °F 84% 29.91 in 10.0 mi South 9.2 mph 18.4 mph N/A   Overcast
2:53 PM 57.0 °F 52.0 °F 83% 29.94 in 10.0 mi SSW 6.9 mph - N/A   Overcast
3:53 PM 57.0 °F 52.0 °F 83% 29.95 in 10.0 mi South 9.2 mph - 0.00 in   Overcast
4:53 PM 57.0 °F 51.1 °F 81% 29.97 in 10.0 mi South 9.2 mph 16.1 mph N/A   Overcast
5:53 PM 55.9 °F 52.0 °F 87% 29.97 in 8.0 mi SSE 9.2 mph - 0.00 in Rain Light Rain
6:03 PM 55.4 °F 51.8 °F 88% 29.94 in 10.0 mi SSE 8.1 mph - 0.00 in Rain Light Rain
6:53 PM 55.0 °F 52.0 °F 89% 29.97 in 10.0 mi Variable 4.6 mph - 0.00 in   Scattered Clouds
7:53 PM 55.9 °F 51.1 °F 84% 29.97 in 10.0 mi SSE 10.4 mph - N/A   Overcast
8:53 PM 55.9 °F 52.0 °F 87% 29.95 in 8.0 mi SSE 13.8 mph - 0.04 in Rain Light Rain
9:28 PM 55.4 °F 51.8 °F 88% 29.93 in 10.0 mi South 5.8 mph - 0.00 in Rain Light Rain
9:53 PM 54.0 °F 51.1 °F 90% 29.94 in 10.0 mi South 4.6 mph - 0.01 in Rain Light Rain
10:50 PM 55.4 °F 51.8 °F 88% 29.92 in 10.0 mi SSE 9.2 mph - 0.00 in   Overcast
10:53 PM 55.9 °F 51.1 °F 84% 29.94 in 10.0 mi SSE 10.4 mph 16.1 mph 0.00 in   Mostly Cloudy
11:53 PM 57.2 °F 51.8 °F 82% 29.92 in 10.0 mi SSE 10.4 mph 20.7 mph N/A   Overcast